Powrót do katalogu

SL-12 DEB

LostHEO
NORAD 32024·DEBRIS·🇷🇺 Russia

Wystrzelony Nov 12, 1997 z Baikonur Cosmodrome

Loading…

Następne Przeloty (najbliższe 24 godziny)

TLE

NieaktualneSource: Space-Track

Epoka: Sep 6, 2011, 13:38 UTC

1 32024U 97070J   11249.56855400  .00044873  00000-0  20160-1 0  9990
2 32024  47.0233 330.1695 4591934 227.9394  90.7250  6.19738058 99761

Śledź SL-12 DEB w czasie rzeczywistym z AllMySat

Download on the App Store